[[{"header":{"parameterUnit":"m.s-1","parameterCategory":1,"la1":30.2991,"la2":30.254,"lo1":-89.0895,"lo2":-89.0444,"dy":0.0017,"dx":0.0017,"nx":28,"ny":28,"refTime":"2024-02-25T09:00:00:Z","depth":0,"parameterNumber":2,"parameterNumberName":"U-component_of_WINDS"},"data":[0,0,0,0,0,0,0,0,0,0,0,0,0,0,0,0,0,0,0,0,0,0,0,0,0,0,0,0,0,0,0,0,0,0,0,0,0,0,0,0,0,0,0,0,0,0,0,0,0,0,0,0,0,0,0,0,0,0,1.5942,1.5941,0,1.5931,1.5931,1.5931,1.5889,1.5888,1.5887,1.5886,1.5876,1.5876,1.5877,0,0,0,0,0,0,0,0,0,0,0,0,0,1.5925,1.5925,1.5942,1.5941,1.5941,1.5931,1.5931,1.5931,1.5889,1.5888,1.5887,1.5886,1.5875,1.5876,1.5877,0,0,0,0,0,0,0,0,0,0,0,0,0,1.5925,1.5925,1.5942,1.5919,1.5917,1.5931,1.5931,1.5931,1.5889,1.5888,1.5886,1.5885,1.5875,1.5876,1.5877,1.5912,0,0,1.588,1.588,0,0,0,0,0,0,0,0,1.5925,1.5926,1.5923,1.5921,1.5918,1.591,1.5921,1.5924,1.589,1.59,1.5886,1.5884,1.5888,1.5888,1.5889,1.5911,1.5911,1.588,1.5881,1.5881,1.5881,0,0,0,0,0,0,0,1.5925,1.5926,1.5937,1.5923,1.592,1.5909,1.5908,1.5922,1.5902,1.5899,1.5896,1.5895,1.5887,1.5888,1.5889,1.5911,1.588,1.5881,1.5881,1.5882,1.596,1.5961,0,0,0,0,0,0,1.5928,1.5926,1.5938,1.5937,1.5918,1.5911,1.5909,1.5914,1.5902,1.5899,1.5896,1.5893,1.5888,1.5888,1.5888,1.5927,1.5881,1.5882,1.5882,1.5958,1.596,1.5962,0,0,0,0,0,0,1.5928,1.593,1.5938,1.5931,1.5931,1.5913,1.5919,1.5915,1.5916,1.59,1.5897,1.5902,1.5886,1.5887,1.5906,1.5927,1.5882,1.5883,1.5956,1.5959,1.5961,1.6007,0,0,0,0,0,0,1.5928,1.593,1.5943,1.5931,1.5932,1.5957,1.592,1.5915,1.5918,1.5914,1.5904,1.5901,1.5885,1.5905,1.5907,1.5927,1.5884,1.5955,1.5958,1.596,1.6003,1.601,1.6016,0,0,0,0,0,1.5927,1.5957,1.5944,1.5946,1.5948,1.5958,1.5958,1.5939,1.592,1.5933,1.5922,1.5902,1.5924,1.5907,1.5909,1.593,1.5953,1.5957,1.596,1.6001,1.6009,1.6016,0,0,0,0,0,0,1.5972,1.5955,1.594,1.5967,1.5964,1.5951,1.5967,1.5949,1.5951,1.5947,1.5924,1.5922,1.5944,1.5939,1.5921,1.5962,1.5935,1.5939,1.5965,1.5973,1.5979,1.598,1.5885,0,0,0,0,0,1.5985,1.5994,1.5979,1.6004,1.6003,1.5985,1.5989,1.5974,1.597,1.5969,1.596,1.5957,1.5963,1.5968,1.5973,1.6002,1.5999,1.6017,1.6024,1.6029,1.6033,1.6047,1.6055,1.5973,1.5973,1.5973,0,0,1.6012,1.6003,1.6011,1.6013,1.6009,1.6019,1.5985,1.5997,1.6004,1.5971,1.5988,1.5982,1.5976,1.6001,1.6011,1.5997,1.6055,1.6034,1.6038,1.6039,1.6052,1.606,1.6066,1.5975,1.5975,1.5974,0,0,1.6065,1.6061,1.608,1.6077,1.6071,1.6059,1.6064,1.6053,1.6047,1.6064,1.6039,1.6047,1.6058,1.6055,1.6055,1.6107,1.6088,1.6109,1.6143,1.6158,1.6164,1.617,1.6188,1.6195,1.6113,1.6113,1.6113,0,1.61,1.6114,1.6093,1.6107,1.6108,1.6078,1.6097,1.6095,1.6091,1.6093,1.6077,1.609,1.6084,1.6107,1.612,1.6121,1.6125,1.611,1.6165,1.617,1.6175,1.6192,1.6199,1.6116,1.6115,1.6115,1.6115,0,1.6156,1.6166,1.6183,1.6179,1.6182,1.6199,1.618,1.6186,1.6171,1.616,1.6177,1.6169,1.6172,1.6176,1.6162,1.6197,1.6188,1.6169,1.6141,1.6186,1.6201,1.6208,1.612,1.6119,1.6118,1.6117,0,0,1.6239,1.6222,1.6229,1.6226,1.6217,1.6225,1.624,1.6242,1.6247,1.6245,1.6256,1.6266,1.6248,1.6248,1.6233,1.6246,1.6287,1.6225,1.6224,1.6237,1.6324,1.6338,1.6346,1.6274,1.6275,1.6276,1.6324,0,1.629,1.6314,1.6295,1.6323,1.6332,1.6303,1.6316,1.6311,1.6301,1.6307,1.6296,1.6304,1.6279,1.6279,1.629,1.6279,1.6304,1.6276,1.6284,1.6285,1.6286,1.6354,1.637,1.6416,1.633,1.6331,1.6332,0,1.6353,1.6353,1.6382,1.637,1.6373,1.6385,1.6384,1.639,1.6385,1.6376,1.6376,1.6358,1.6371,1.6344,1.6361,1.6343,1.6345,1.634,1.6341,1.6341,1.6311,1.6356,1.643,1.6437,1.6341,1.6341,1.634,0,1.6409,1.6417,1.6435,1.6434,1.642,1.6429,1.6424,1.6417,1.6419,1.6419,1.642,1.6421,1.6422,1.6424,1.6406,1.6388,1.6426,1.6397,1.6419,1.642,1.6429,1.6429,1.6504,1.6431,1.6431,1.6431,1.643,0,1.6468,1.6487,1.646,1.6471,1.6491,1.6468,1.6488,1.648,1.6474,1.6482,1.6458,1.6466,1.6442,1.6448,1.6434,1.6451,1.6452,1.6445,1.6441,1.6448,1.6448,1.6449,1.6445,1.6432,1.6432,1.6432,1.6431,0,1.6535,1.6518,1.6535,1.6521,1.6517,1.6532,1.652,1.6529,1.6518,1.6529,1.653,1.6512,1.6518,1.65,1.6503,1.6494,1.6518,1.6509,1.652,1.6517,1.654,1.6538,1.6619,1.6628,1.6549,1.655,1.655,0,1.6573,1.6587,1.6573,1.6577,1.6573,1.658,1.6582,1.656,1.6563,1.6557,1.6567,1.6571,1.6572,1.6583,1.657,1.6572,1.6563,1.6591,1.6563,1.6568,1.6563,1.6562,1.6563,1.6597,1.6598,1.6598,1.6599,0,1.6643,1.6634,1.6637,1.6638,1.664,1.664,1.6637,1.6642,1.6618,1.6623,1.6628,1.663,1.6633,1.6636,1.6636,1.663,1.6611,1.6608,1.6613,1.6619,1.6625,1.6622,1.6535,1.6606,1.6605,1.6605,1.6604,1.6604,1.6697,1.6707,1.6699,1.6703,1.6699,1.6697,1.6705,1.6694,1.6698,1.6699,1.6685,1.6693,1.6687,1.6683,1.668,1.6686,1.6673,1.668,1.6682,1.6684,1.6688,1.6624,1.6685,1.6685,1.6685,1.6685,1.6685,0,1.6765,1.6758,1.6763,1.676,1.6763,1.6744,1.674,1.6744,1.6752,1.6747,1.6749,1.6755,1.6758,1.6745,1.6747,1.6754,1.6745,1.6755,1.6754,1.6753,1.67,1.6695,1.6762,1.6762,1.6762,1.6762,1.6762,1.6762,1.6801,1.6817,1.6807,1.682,1.6813,1.6821,1.682,1.6818,1.6814,1.6822,1.6824,1.6815,1.6807,1.6808,1.681,1.6806,1.6808,1.6821,1.6814,1.6764,1.6757,1.675,1.6745,1.6821,1.6821,1.6866,1.6867,1.6867]},{"header":{"parameterUnit":"m.s-1","parameterCategory":1,"la1":30.2991,"la2":30.254,"lo1":-89.0895,"lo2":-89.0444,"dy":0.0017,"dx":0.0017,"nx":28,"ny":28,"refTime":"2024-02-25T09:00:00:Z","depth":0,"parameterNumber":3,"parameterNumberName":"V-component_of_WINDS"},"data":[0,0,0,0,0,0,0,0,0,0,0,0,0,0,0,0,0,0,0,0,0,0,0,0,0,0,0,0,0,0,0,0,0,0,0,0,0,0,0,0,0,0,0,0,0,0,0,0,0,0,0,0,0,0,0,0,0,0,4.4998,4.4996,0,4.4843,4.4841,4.4839,4.4744,4.4743,4.4743,4.4742,4.4582,4.4578,4.4574,0,0,0,0,0,0,0,0,0,0,0,0,0,4.5208,4.5204,4.4998,4.4996,4.4994,4.4843,4.4841,4.4839,4.4744,4.4743,4.4743,4.4742,4.4583,4.4579,4.4574,0,0,0,0,0,0,0,0,0,0,0,0,0,4.5091,4.5203,4.4998,4.4928,4.4921,4.4844,4.4841,4.4838,4.4744,4.4743,4.4743,4.4742,4.4585,4.4579,4.4574,4.4553,0,0,4.4556,4.4554,0,0,0,0,0,0,0,0,4.5098,4.5083,4.4941,4.4933,4.4924,4.4812,4.4856,4.4743,4.4744,4.4811,4.4742,4.4742,4.4659,4.4647,4.462,4.4546,4.4539,4.4556,4.4552,4.455,4.4548,0,0,0,0,0,0,0,4.5106,4.509,4.4936,4.4939,4.4929,4.4904,4.4886,4.4834,4.4741,4.4805,4.4798,4.4781,4.4654,4.4625,4.4615,4.4536,4.4556,4.4551,4.4547,4.4545,4.4437,4.4438,0,0,0,0,0,0,4.5126,4.5097,4.4941,4.4932,4.5011,4.4901,4.4881,4.4849,4.4741,4.4724,4.4782,4.4777,4.4635,4.4622,4.4609,4.4578,4.455,4.4544,4.4541,4.4437,4.4437,4.4438,0,0,0,0,0,0,4.513,4.5113,4.4948,4.5012,4.4989,4.4898,4.4862,4.4846,4.4817,4.4724,4.4706,4.477,4.4634,4.4617,4.4568,4.4571,4.4542,4.4537,4.4436,4.4437,4.4438,4.4515,0,0,0,0,0,0,4.5137,4.5115,4.5107,4.5013,4.4986,4.491,4.4862,4.4844,4.4808,4.48,4.4708,4.4691,4.4632,4.4577,4.4562,4.4562,4.4532,4.4435,4.4436,4.4437,4.4512,4.4519,4.4524,0,0,0,0,0,4.5145,4.5135,4.5107,4.5089,4.4975,4.491,4.4895,4.4828,4.4808,4.4799,4.4739,4.4694,4.4573,4.4573,4.4555,4.4554,4.4435,4.4436,4.4437,4.4509,4.4517,4.4524,0,0,0,0,0,0,4.5231,4.5121,4.5089,4.5049,4.499,4.4894,4.488,4.4838,4.4783,4.4778,4.4696,4.4676,4.4635,4.4589,4.4591,4.4528,4.4499,4.4497,4.4559,4.4566,4.4572,4.4584,4.4527,0,0,0,0,0,4.5245,4.5203,4.5109,4.5082,4.5054,4.4973,4.4942,4.4896,4.4831,4.4805,4.4741,4.4679,4.4627,4.4594,4.4541,4.4505,4.4483,4.4495,4.4502,4.4507,4.4506,4.4483,4.4488,4.4442,4.4442,4.4442,0,0,4.5274,4.5209,4.5187,4.5098,4.5046,4.5004,4.4952,4.4909,4.4876,4.4798,4.4747,4.4699,4.4624,4.4581,4.4559,4.4542,4.4514,4.4509,4.4514,4.451,4.4485,4.449,4.4494,4.4443,4.4443,4.4443,0,0,4.5305,4.5252,4.5223,4.5173,4.5096,4.5042,4.5036,4.4946,4.4911,4.4859,4.48,4.4759,4.4671,4.462,4.4582,4.4594,4.4551,4.4579,4.4611,4.459,4.4593,4.4596,4.46,4.4602,4.4578,4.4579,4.4579,0,4.535,4.5284,4.5214,4.5174,4.5136,4.5064,4.5034,4.4989,4.4898,4.4873,4.4855,4.4743,4.4688,4.4632,4.4635,4.4607,4.4596,4.4589,4.4599,4.4601,4.4602,4.4605,4.4607,4.4582,4.4582,4.4582,4.4581,0,4.5343,4.5299,4.5285,4.52,4.516,4.5126,4.5049,4.5017,4.4974,4.4922,4.487,4.4801,4.4732,4.4716,4.4673,4.4654,4.4645,4.4614,4.4583,4.4612,4.4613,4.4613,4.4588,4.4587,4.4585,4.4584,0,0,4.5424,4.5301,4.5297,4.5258,4.5168,4.5131,4.5093,4.5026,4.5,4.494,4.4905,4.4833,4.4803,4.4761,4.4712,4.4693,4.4706,4.4664,4.4661,4.4674,4.468,4.4704,4.4706,4.4677,4.4677,4.4677,4.4686,0,4.5441,4.537,4.5305,4.5257,4.5214,4.5145,4.5112,4.5052,4.5002,4.4958,4.4902,4.4851,4.4817,4.4791,4.4769,4.4709,4.4706,4.4708,4.4644,4.4642,4.4664,4.4707,4.4732,4.4744,4.4686,4.4686,4.4686,0,4.5451,4.5395,4.5343,4.5257,4.5237,4.5208,4.5141,4.51,4.5031,4.4996,4.4949,4.4897,4.4853,4.4827,4.4764,4.4767,4.4737,4.4703,4.4702,4.4693,4.4666,4.4699,4.4746,4.4748,4.4686,4.4686,4.4686,0,4.5515,4.5426,4.5383,4.5352,4.525,4.5232,4.5188,4.5118,4.5083,4.5024,4.5,4.4937,4.4903,4.4856,4.4788,4.4776,4.4733,4.4701,4.4702,4.4704,4.4695,4.4697,4.4738,4.4677,4.4677,4.4677,4.4677,0,4.554,4.5511,4.541,4.5384,4.5349,4.5275,4.5241,4.5192,4.5131,4.5093,4.5029,4.4995,4.4908,4.4863,4.481,4.4766,4.4751,4.4721,4.4708,4.4727,4.4731,4.4706,4.4703,4.4678,4.4677,4.4677,4.4677,0,4.5605,4.5537,4.5485,4.5394,4.537,4.5348,4.5269,4.524,4.5187,4.514,4.5124,4.504,4.4984,4.4912,4.4834,4.4798,4.476,4.4739,4.4784,4.4775,4.478,4.4781,4.4806,4.4806,4.4746,4.4747,4.4748,0,4.5626,4.5602,4.5508,4.5479,4.5438,4.5391,4.5354,4.528,4.5244,4.5163,4.5144,4.5083,4.5031,4.4944,4.4876,4.4815,4.4792,4.4805,4.4782,4.4802,4.4791,4.4794,4.4791,4.4811,4.4812,4.4813,4.4813,0,4.567,4.5637,4.5587,4.5525,4.5483,4.5431,4.5375,4.5354,4.5268,4.5231,4.5173,4.5132,4.5052,4.4992,4.4923,4.4877,4.4831,4.4821,4.4818,4.4837,4.4864,4.4849,4.4799,4.4821,4.482,4.482,4.4819,4.4819,4.5713,4.5688,4.5618,4.5564,4.5515,4.5464,4.5433,4.5376,4.5326,4.5256,4.5214,4.5158,4.5089,4.4991,4.4947,4.4902,4.4884,4.488,4.4879,4.4879,4.4885,4.4872,4.4889,4.4888,4.4888,4.4888,4.4888,0,4.5753,4.5705,4.5656,4.5581,4.5538,4.5499,4.5435,4.5402,4.5354,4.5293,4.5243,4.5176,4.5118,4.5045,4.4982,4.4959,4.4937,4.4945,4.4946,4.4936,4.4904,4.4913,4.4965,4.4965,4.4965,4.4965,4.4965,4.4965,4.5769,4.5725,4.5684,4.5615,4.5566,4.5511,4.5478,4.5431,4.5382,4.5311,4.5262,4.5215,4.515,4.5081,4.5026,4.5006,4.4985,4.5,4.4974,4.4945,4.4938,4.4932,4.494,4.4997,4.4997,4.501,4.501,4.501]}]]